Retour au catalogue

FENGYUN 1C DEB

ActifSSO
NORAD 31646·DEBRIS·🇨🇳 China

Lancé May 10, 1999 depuis Taiyuan Satellite Launch Center

Loading…

Prochains Passages (prochaines 24 heures)

TLE

FraisSource: Space-Track

Époque: Sep 13, 2026, 07:01 UTC

1 31646U 99025CBC 26256.29268446  .00000499  00000-0  28069-3 0  9997
2 31646  98.6720 276.5861 0034081 149.1424 211.1762 14.14573452670728

Suivez FENGYUN 1C DEB en temps réel avec AllMySat

Download on the App Store